DO5RS-5 Weather Reports


time (UTC)temp
C
wind
direction
speed
KPH
gust
KPH
rain 1hr
cm
rain 24hr
cm
rain mn
cm
humidity
%
barometer
mb
20260509222907 15 0.0 0.0 0.00 0.00 0.00 65 1019.0
20260509221906 15 0.0 0.0 0.00 0.00 0.00 65 1019.3
20260509220909 15 0.0 0.0 0.00 0.00 0.00 65 1019.3
20260509214909 16 0.0 0.0 0.00 0.00 0.00 63 1019.2
20260509212905 16 0.0 0.0 0.00 0.00 0.00 61 1019.2
20260509211904 16 0.0 0.0 0.00 0.00 0.00 61 1019.3
20260509210905 16 0.0 0.0 0.00 0.00 0.00 61 1019.2
20260509205905 16 0.0 0.0 0.00 0.00 0.00 60 1019.1
20260509204909 16 0.0 0.0 0.00 0.00 0.00 59 1019.0
20260509202904 17 0.0 0.0 0.00 0.00 0.00 59 1019.0
20260509201905 17 0.0 0.0 0.00 0.00 0.00 57 1018.8
20260509200905 17 0.0 0.0 0.00 0.00 0.00 57 1019.0
20260509195906 17 0.0 0.0 0.00 0.00 0.00 56 1019.1
20260509194907 18 0.0 0.0 0.00 0.00 0.00 56 1018.6
20260509193904 18 0.0 0.0 0.00 0.00 0.00 55 1018.8
20260509192904 18 0.0 0.0 0.00 0.00 0.00 54 1018.6
20260509191905 18 0.0 0.0 0.00 0.00 0.00 54 1018.5
20260509190904 19 0.0 0.0 0.00 0.00 0.00 52 1018.4
20260509185905 20 0.0 0.0 0.00 0.00 0.00 51 1018.2
20260509184904 20 0.0 0.0 0.00 0.00 0.00 49 1018.3
20260509183904 21 0.0 0.0 0.00 0.00 0.00 47 1018.1
20260509182905 21 0.0 0.0 0.00 0.00 0.00 46 1018.0
20260509181904 22 0.0 0.0 0.00 0.00 0.00 44 1017.9
20260509180904 22 0.0 0.0 0.00 0.00 0.00 43 1017.8
20260509175904 23 0.0 0.0 0.00 0.00 0.00 41 1017.7
20260509174906 23 0.0 0.0 0.00 0.00 0.00 40 1017.6
20260509173911 24 0.0 0.0 0.00 0.00 0.00 38 1017.6
20260509171910 25 0.0 0.0 0.00 0.00 0.00 37 1017.3
20260509163909 27 0.0 0.0 0.00 0.00 0.00 33 1017.7
20260509160904 27 0.0 0.0 0.00 0.00 0.00 32 1017.9
20260509155904 27 0.0 0.0 0.00 0.00 0.00 32 1018.0
20260509154905 27 0.0 0.0 0.00 0.00 0.00 32 1017.9
20260509153915 27 0.0 0.0 0.00 0.00 0.00 32 1018.0
20260509151905 28 0.0 0.0 0.00 0.00 0.00 31 1018.1
20260509150904 28 0.0 0.0 0.00 0.00 0.00 31 1018.3
20260509145903 28 0.0 0.0 0.00 0.00 0.00 31 1018.3
20260509144904 28 0.0 0.0 0.00 0.00 0.00 31 1018.4
20260509143909 27 0.0 0.0 0.00 0.00 0.00 32 1018.3
20260509140904 27 0.0 0.0 0.00 0.00 0.00 31 1018.8
20260509135904 28 0.0 0.0 0.00 0.00 0.00 32 1018.8
20260509134905 28 0.0 0.0 0.00 0.00 0.00 32 1019.0
20260509133905 27 0.0 0.0 0.00 0.00 0.00 34 1019.1
20260509132909 28 0.0 0.0 0.00 0.00 0.00 31 1019.2
20260509130905 27 0.0 0.0 0.00 0.00 0.00 32 1019.5
20260509125905 27 0.0 0.0 0.00 0.00 0.00 32 1019.8
20260509124905 26 0.0 0.0 0.00 0.00 0.00 33 1019.9
20260509123905 27 0.0 0.0 0.00 0.00 0.00 32 1020.1
20260509122909 26 0.0 0.0 0.00 0.00 0.00 33 1020.1
20260509120905 25 0.0 0.0 0.00 0.00 0.00 37 1020.5
20260509115906 25 0.0 0.0 0.00 0.00 0.00 37 1020.7
20260509114905 25 0.0 0.0 0.00 0.00 0.00 35 1020.8
20260509113904 24 0.0 0.0 0.00 0.00 0.00 38 1021.0
20260509112904 24 0.0 0.0 0.00 0.00 0.00 40 1021.1
20260509111905 23 0.0 0.0 0.00 0.00 0.00 43 1021.4
20260509110910 22 0.0 0.0 0.00 0.00 0.00 46 1021.5
20260509104907 20 0.0 0.0 0.00 0.00 0.00 50 1021.8
20260509103904 19 0.0 0.0 0.00 0.00 0.00 53 1022.1
20260509102904 18 0.0 0.0 0.00 0.00 0.00 58 1022.2
20260509101906 17 0.0 0.0 0.00 0.00 0.00 62 1022.4
20260509100907 16 0.0 0.0 0.00 0.00 0.00 65 1022.6
20260509095910 16 0.0 0.0 0.00 0.00 0.00 67 1022.9
20260509093905 14 0.0 0.0 0.00 0.00 0.00 76 1023.1
20260509092911 13 0.0 0.0 0.00 0.00 0.00 76 1023.2
20260509090909 12 0.0 0.0 0.00 0.00 0.00 78 1023.4
20260509084905 12 0.0 0.0 0.00 0.00 0.00 79 1023.4
20260509083909 12 0.0 0.0 0.00 0.00 0.00 79 1023.5
20260509081909 12 0.0 0.0 0.00 0.00 0.00 77 1023.6
20260509075904 11 0.0 0.0 0.00 0.00 0.00 78 1023.8
20260509074909 11 0.0 0.0 0.00 0.00 0.00 76 1023.7
20260509072905 11 0.0 0.0 0.00 0.00 0.00 78 1023.7
20260509071905 11 0.0 0.0 0.00 0.00 0.00 78 1023.7
20260509070910 11 0.0 0.0 0.00 0.00 0.00 78 1023.7
20260509064904 11 0.0 0.0 0.00 0.00 0.00 77 1023.7
20260509063909 11 0.0 0.0 0.00 0.00 0.00 78 1023.6
20260509061909 11 0.0 0.0 0.00 0.00 0.00 78 1023.5
20260509055906 11 0.0 0.0 0.00 0.00 0.00 78 1023.5
20260509054905 11 0.0 0.0 0.00 0.00 0.00 78 1023.5
20260509053904 11 0.0 0.0 0.00 0.00 0.00 78 1023.5
20260509052906 10 0.0 0.0 0.00 0.00 0.00 78 1023.4
20260509051905 10 0.0 0.0 0.00 0.00 0.00 78 1023.4
20260509050906 10 0.0 0.0 0.00 0.00 0.00 78 1023.4
20260509045907 10 0.0 0.0 0.00 0.00 0.00 77 1023.2
20260509044904 10 0.0 0.0 0.00 0.00 0.00 77 1023.2
20260509043905 10 0.0 0.0 0.00 0.00 0.00 77 1023.1
20260509042904 11 0.0 0.0 0.00 0.00 0.00 77 1023.0
20260509041906 11 0.0 0.0 0.00 0.00 0.00 77 1023.0
20260509040907 11 0.0 0.0 0.00 0.00 0.00 76 1023.0
20260509035905 11 0.0 0.0 0.00 0.00 0.00 77 1022.9
20260509034904 11 0.0 0.0 0.00 0.00 0.00 77 1022.9
20260509033905 11 0.0 0.0 0.00 0.00 0.00 77 1022.8
20260509032904 11 0.0 0.0 0.00 0.00 0.00 77 1023.0
20260509031903 11 0.0 0.0 0.00 0.00 0.00 77 1022.9
20260509030904 11 0.0 0.0 0.00 0.00 0.00 76 1022.9
20260509025905 11 0.0 0.0 0.00 0.00 0.00 76 1023.0
20260509024904 11 0.0 0.0 0.00 0.00 0.00 76 1023.1
20260509023904 11 0.0 0.0 0.00 0.00 0.00 76 1023.1
20260509022905 11 0.0 0.0 0.00 0.00 0.00 76 1022.7
20260509021909 11 0.0 0.0 0.00 0.00 0.00 76 1023.1
20260509015905 11 0.0 0.0 0.00 0.00 0.00 76 1023.0
20260509014905 11 0.0 0.0 0.00 0.00 0.00 76 1023.0
20260509013905 11 0.0 0.0 0.00 0.00 0.00 76 1022.9
20260509012907 11 0.0 0.0 0.00 0.00 0.00 76 1022.9
20260509011913 11 0.0 0.0 0.00 0.00 0.00 76 1022.9
20260509004905 12 0.0 0.0 0.00 0.00 0.00 75 1023.1
20260509003906 12 0.0 0.0 0.00 0.00 0.00 75 1023.1
20260509002905 12 0.0 0.0 0.00 0.00 0.00 74 1023.1
20260509001905 12 0.0 0.0 0.00 0.00 0.00 74 1023.1
20260509000906 12 0.0 0.0 0.00 0.00 0.00 74 1023.1
20260508235909 12 0.0 0.0 0.00 0.00 0.00 74 1023.0
20260508233904 12 0.0 0.0 0.00 0.00 0.00 73 1023.1
20260508232904 12 0.0 0.0 0.00 0.00 0.00 74 1023.2
20260508231904 12 0.0 0.0 0.00 0.00 0.00 73 1023.1
20260508230903 12 0.0 0.0 0.00 0.00 0.00 73 1023.0
20260508225904 12 0.0 0.0 0.00 0.00 0.00 73 1023.0
20260508224909 12 0.0 0.0 0.00 0.00 0.00 72 1022.9